sat.trackr.live / text

‹ back to catalog

STARLINK-3504

NORAD 51881 · 2022-022AF

PAYLOAD ACTIVE UNKNOWN

§ Identity

Operator
Country
US
Launch date
2022-03-03
Launch site
AFETR
Launch vehicle
Mass (kg)
RCS (m²)

Purposes: comms

External: N2YO · Heavens-Above · Gunter

§ Orbital elements

Epoch: 2026-05-25T00:22:52.646304Z

Period
95.44 min
Inclination
53.2146°
Eccentricity
0.0001337
Mean motion
15.08840194 rev/d
Perigee alt
538.8 km
Apogee alt
540.7 km
Semi-major
6,917.9 km
B*
4.0775e-5
RAAN
16.4784°
Arg perigee
89.9092°
Mean anomaly
270.2053°
Rev number
23,482

§ Raw data

STARLINK-35041 51881U 22022AF  26145.01588711  .00000361  00000+0  40775-4 0  99962 51881  53.2146  16.4784 0001337  89.9092 270.2053 15.08840194234825

JSON: /api/v1/satellites/51881 · /tle

For live sub-satellite position, see the globe view (requires WebGL).

§ Visibility from observer

Set your observer location to see the next 7 days of passes ≥ 10°. The values pass through the URL so the page stays shareable.

No JS? Fill the form by hand. The geolocation button needs JavaScript.